Location: Unspecified
(0.0000°N, 0.0000°E)
Time: 09:25:19
(UTC+02:00)

USA 116 - Visible Passes

Search period start: 31 July 2016 00:00
Search period end: 10 August 2016 00:00
Orbit: 405 x 834 km, 97.9° (Epoch: 18 November)

Date Brightness Start Highest point End Pass type
(mag) Time Alt. Az. Time Alt. Az. Time Alt. Az.
31 Jul 3.8 06:42:04 10° SSE 06:45:07 55° ENE 06:48:09 10° N visible
01 Aug 2.9 06:55:54 10° S 06:58:59 73° WSW 07:02:05 10° NNW visible
02 Aug 3.6 07:09:58 10° S 07:12:52 36° W 07:15:46 10° NNW visible
03 Aug 4.4 07:24:21 10° SSW 07:26:44 20° WSW 07:29:08 10° NW visible
04 Aug 5.1 07:39:22 10° SW 07:40:37 12° W 07:41:52 10° WNW visible
05 Aug 6.1 06:16:37 10° ESE 06:18:46 17° ENE 06:21:00 10° NNE visible
06 Aug 5.1 06:29:49 10° SE 06:32:37 30° ENE 06:35:31 10° NNE visible
07 Aug 3.7 06:43:23 10° SSE 06:46:28 59° ENE 06:49:42 10° N visible
08 Aug 3.0 06:57:13 10° S 07:00:20 70° W 07:03:37 10° NNW visible
09 Aug 3.7 07:11:16 10° S 07:14:12 36° W 07:17:19 10° NNW visible
